OBJECT G, 63988

Orbit data source: Space-Track

You're viewing an Uncataloged Satellite

Recently launched and/or uncataloged satellites may have evolving metadata. Metadata may include but not limited to: Owner, Maufacturer, Bus, Motor, and Mission.

OBJECT G, 63988 is a Chinese satellite in SSO that was launched on Wed, 14 May 2025 UTC via a CHANG ZHENG 2D launch vehicle from the Jiuquan Satellite Launch Center, China (JSC). Unknown objects in Earth's orbit typically refer to objects detected orbiting the Earth but have not yet been identified or cataloged. These objects could be anything from previously untracked satellites, spent rocket stages, debris from satellite collisions, or even natural meteoroids temporarily captured by Earth's gravity.

Loading next visibility...
Identifier
63988, 2025-100G
Orbit
SSO
Country
Flag of CNCN / PRC
Related business
None
Manufacturer
Unknown
Mission
Operational Commercial Technology
Bus & Motor
Unknown
Mass
Unknown
Launch date (UTC)
2025-05-14 (1 year ago)
Launch vehicle
CHANG ZHENG 2D
Launch site
Jiuquan Satellite Launch Center, China (JSC)
Object type
Unknown
Shape & HBR
Box + 2 Pan, 1.1 m
Radar Cross Section
0.135 m², Large (>1 m²)

Expand to show TLE details & history
Last TLE update: 12 hours ago

TLE from 12 hours ago
0 OBJECT G
1 63988U 25100G   26206.59190302  .00004883  00000-0  18665-3 0  9999
2 63988  97.3688 281.1025 0013357 162.4851 197.6852 15.26993153 66624
Epoch: 2026-07-25T14:12Z
TLE epoch observation values (Epoch: 2026-07-25T14:12:20.420Z)
Latitude
0.00001°
Longitude
124.71544°
Altitude
496.644 km
Speed
7.611 km/s
True Right ascension
18h 44m 24s
True Declination
0° 00' 00"
Sunlit
Object was in full shadow at epoch
Visualization orbit readout
Latitude
Unknown
Longitude
Unknown
Altitude
Unknown
Speed
Unknown
Apparent Right ascension
Unknown
Apparent Declination
Unknown
Sunlit
N/A
Visualization observer readout
Local Sidereal Time
15:23:04
Azimuth
Unknown
Elevation
Unknown
Doppler factor
Unknown
Orbital elements
Apogee altitude
490.925 km
Perigee altitude
472.599 km
Semi-major axis
6,859.899 km
Eccentricity
0.00134
Inclination
97.3688°
RAAN
281.1025°
Arg. of periapsis
162.4851°
True anomaly
197.63878°
Mean anomaly
197.6852°
Eccentric anomaly
197.66198°
Mean motion
3.82003 °/min
Orbital period
94.24 mins
BSTAR
0.00018665
Loading maneuver chart data...
Computing Atmospheric mass density...
Loading historical data...
Loading historical data...
Loading historical data...
Loading historical data...
Loading historical data...
Loading historical data...
Loading historical data...

Documentation

Showing up to 5 results
|